Location: Chiroubles
(46.1812°N, 4.6660°E)
Time: 03:33:56
(UTC+00:00)

Lacrosse 5 - Pass Details

Date: 15 August 2020
Orbit: 716 x 722 km, 57.0° (Epoch: 27 September)

Event Time Altitude Azimuth Distance (km) Brightness Sun altitude
Rises 20:31:55 0° 307° (NW) 3,133 7.0 -16.0°
Reaches altitude 10° 20:34:20 10° 304° (NW) 2,210 5.7 -16.3°
Maximum altitude 20:39:20 60° 225° (SW) 824 2.1 -16.9°
Enters shadow 20:41:51 28° 156° (SSE) 1,320 2.7 -17.3°
